sat.trackr.live / text

‹ back to catalog

STARLINK-4290

NORAD 53006 · 2022-076W

PAYLOAD ACTIVE UNKNOWN

§ Identity

Operator
Country
US
Launch date
2022-07-07
Launch site
AFETR
Launch vehicle
Mass (kg)
RCS (m²)

Purposes: comms

External: N2YO · Heavens-Above · Gunter

§ Orbital elements

Epoch: 2026-05-25T04:11:24.914688Z

Period
95.44 min
Inclination
53.2172°
Eccentricity
0.0001104
Mean motion
15.08835279 rev/d
Perigee alt
539.0 km
Apogee alt
540.5 km
Semi-major
6,917.9 km
B*
-1.8124e-5
RAAN
110.7668°
Arg perigee
61.3967°
Mean anomaly
298.7136°
Rev number
21,439

§ Raw data

STARLINK-42901 53006U 22076W   26145.17459392 -.00000576  00000+0 -18124-4 0  99982 53006  53.2172 110.7668 0001104  61.3967 298.7136 15.08835279214396

JSON: /api/v1/satellites/53006 · /tle

For live sub-satellite position, see the globe view (requires WebGL).

§ Visibility from observer

Set your observer location to see the next 7 days of passes ≥ 10°. The values pass through the URL so the page stays shareable.

No JS? Fill the form by hand. The geolocation button needs JavaScript.